Regional Weather Roundup
Issued by NWS

Home | Current Version | Previous Version | Graphics & Text | Print | Product List | Glossary On
Versions: 1 2 3 4 5 6 7 8 9 10 11 12 13 14 15 16 17 18 19 20 21 22 23 24 25 26 27 28 29 30 31 32 33 34 35 36 37 38 39 40 41 42 43 44 45 46 47 48 49 50
000
ASUS43 KLOT 250906
RWRIL

ILLINOIS REGIONAL WEATHER ROUNDUP
NATIONAL WEATHER SERVICE CHICAGO/ROMEOVILLE IL
400 AM CDT FRI JUL 25 2014

NOTE: "FAIR" INDICATES FEW OR NO CLOUDS BELOW 12,000 FEET WITH NO
SIGNIFICANT WEATHER AND/OR OBSTRUCTIONS TO VISIBILITY.

* THESE STATIONS ARE NOT UNDER NWS QUALITY CONTROL. THEY ALSO MAY NOT
  REPORT WEATHER SUCH AS PRECIPITATION OR FOG.

ILZ001-002-007-009-015-016-024-251000-
NORTHWEST ILLINOIS

CITY           SKY/WX    TMP DP  RH WIND       PRES   REMARKS
MOLINE         PTCLDY    61  55  81 SE8       30.00R
STERLING*      CLEAR     57  52  82 SE6       30.03S
SAVANNA*       CLEAR     60  54  81 CALM      30.02R
$$

ILZ003-004-008-010-011-017-018-251000-
NORTH CENTRAL ILLINOIS

CITY           SKY/WX    TMP DP  RH WIND       PRES   REMARKS
ROCKFORD       MOCLDY    58  49  72 S3        30.08R
FREEPORT*      CLEAR     58  52  80 S8        30.04F
ROCHELLE*      CLEAR     53  50  89 SE3       30.06R
DE KALB*       CLEAR     52  48  86 S5        30.07R
PERU*          CLEAR     60  53  76 SE10      30.05S
$$

ILZ005-006-012>014-019>023-251000-
NORTHEAST ILLINOIS

CITY           SKY/WX    TMP DP  RH WIND       PRES   REMARKS
CHICAGO-OHARE  CLEAR     56  48  74 S5        30.04F
CHICAGO-MIDWAY PTCLDY    61  51  70 S6        30.04F
AURORA         CLEAR     52  47  83 CALM      30.06F
JOLIET*        CLEAR     52  51  94 CALM      30.08S
WAUKEGAN       PTCLDY    55  48  77 SW5       30.03F
DUPAGE AIRPORT CLEAR     53  50  89 SW3       30.05F
KANKAKEE*      CLEAR     54  51  91 CALM      30.07F
WHEELING       CLEAR     58  50  75 CALM      30.05F
MORRIS*        CLEAR     55  53  94 S3        30.05F
ROMEOVILLE*    CLEAR     53  49  87 S5        30.07R
$$

LMZ740>746-251000-
SOUTHERN LAKE MICHIGAN

STATION/POSITION SKY/WX   TEMP    WIND        PRES    VSBY  WAVE
                          AIR SEA DIR/SP/G                  HT/PER
                          (F)     (DEG/KT/KT) (MB)    (MI)  (FT/S)
SOUTHERN BUOY              62 61  200/  6/  8 1017.3F         0
WAUKEGAN HARBOR            62     240/  9/ 11   N/A
HARRISON CRIB              64     180/  8/ 10   N/A
CALUMET HARBOR             60     180/  3/  3 1016.5F
MICHIGAN CITY              57     200/  4/  5   N/A
MICHIGAN CITY 6N           61 68  190/  8/ 10   N/A           1
ST. JOSEPH                 58 54  180/  6/  8   N/A           1
$$

ILZ025>027-034>036-040-047-049-050-058-095>099-251000-
WEST-CENTRAL ILLINOIS

CITY           SKY/WX    TMP DP  RH WIND       PRES   REMARKS
QUINCY         CLOUDY    63  53  70 SE7       30.02R
GALESBURG*     PTCLDY    60  56  88 CALM      30.02S
MACOMB*        PTCLDY    57  56  94 SE6       30.04R
JACKSONVILLE*  PTCLDY    61  56  82 SE7       30.04R
PITTSFIELD*    PTCLDY    60  55  84 SE3       30.03R
$$

ILZ028>032-037-038-041>044-048-051>054-059>061-251000-
CENTRAL ILLINOIS

CITY           SKY/WX    TMP DP  RH WIND       PRES   REMARKS
PONTIAC        CLEAR     55  55 100 SE5       30.06S
DECATUR        PTCLDY    57  54  89 SE3       30.06F
PEORIA         CLEAR     64  53  67 SE5       30.04S
LACON*         CLEAR     59  52  77 SE8       30.03S
LINCOLN*       CLEAR     57  54  91 CALM      30.02F
SPRINGFIELD    PTCLDY    60  56  86 SE3       30.03F
TAYLORVILLE    CLEAR     59  55  88 SE7       30.03F
$$

ILZ033-039-045-046-055>057-062-063-251000-
EAST-CENTRAL ILLINOIS

CITY           SKY/WX    TMP DP  RH WIND       PRES   REMARKS
CHAMPAIGN      CLEAR     57  54  89 E8        30.06F
DANVILLE*      CLEAR     53  52  97 CALM      30.05S
RANTOUL*       CLEAR     58  53  81 CALM      30.08F
MATTOON        PTCLDY    57  55  93 SE5       30.06F
PARIS*         CLEAR     51  50  97 CALM      30.08F
$$

ILZ079-100>102-251000-
SOUTHWEST ILLINOIS

CITY           SKY/WX    TMP DP  RH WIND       PRES   REMARKS
ALTON          CLEAR     58  58 100 E5        30.03F
BELLEVILLE     PTCLDY    58  58  99 SE2       30.03F
CAHOKIA*       CLEAR     61  57  87 S3        30.03F
SPARTA*        CLEAR     57  55  94 SE3       30.05F
$$

ILZ064>066-069>071-074>076-080>082-084>086-088>090-092>094-251000-
SOUTH-CENTRAL ILLINOIS

CITY           SKY/WX    TMP DP  RH WIND       PRES   REMARKS
CARBONDALE     FOG       58  56  93 CALM      30.06S VSB 1/2
CAIRO*         CLEAR     60  57  91 CALM      30.05S
EFFINGHAM*     PTCLDY    58  55  89 SE5       30.06F
MARION         FOG       57  55  94 CALM      30.07R VSB 1
MT. VERNON     CLEAR     55  50  82 CALM      30.07S
CENTRALIA*     CLEAR     55  53  94 E5        30.05F
SALEM*         CLEAR     60  59  96 E3        30.06F
METROPOLIS*    CLEAR     56  56  97 CALM      30.05S FOG
$$

ILZ067-068-072-073-078-083-087-091-251000-
SOUTHEAST ILLINOIS

CITY           SKY/WX    TMP DP  RH WIND       PRES   REMARKS
LAWRENCEVILLE  CLEAR     58  57  97 N6        30.09R
FLORA*         CLEAR     57  56  98 CALM      30.07F
FAIRFIELD*     CLEAR     57  55  94 CALM      30.07R
HARRISBURG*    FOG       57  57 100 CALM      30.07S VSB 3/4
ROBINSON*        N/A     54  54  98 CALM      30.09R FOG
CARMI*         FOG       57  57 100 CALM      30.07R VSB 3/4
$$

ABBREVIATIONS USED IN REMARKS
   TC - TEMPERATURE IN CELSIUS
  WCI - WIND CHILL INDEX
   HX - HEAT INDEX
  VSB - VISIBILITY
$$



USA.gov is the U.S. government's official web portal to all federal, state and local government web resources and services.